DLH338 EDDM-EGLL

Flight info

Callsign DLH338
Flight time N/A
Altitude 34000
Route GIVMI6E GIVMI Y101 INBED DCT REKDI DCT LOHRE DCT ADKUV DCT DENUT L608 LOGAN
Aircraft A320/M-SDE3FGHIRWY/LB1

Departure

Time 2026-04-30 22:55
Airport Munich Airport (EDDM)

Arrival

Time N/A
Airport London Heathrow Airport (EGLL)
Time Latitude Longitude Altitude Speed Heading
2026-04-30 22:31 48.35694 11.77615 1479 ft 0 kts 263°
2026-04-30 22:40 48.35703 11.77675 1475 ft 4 kts 245°
2026-04-30 22:41 48.35736 11.77714 1471 ft 0 kts 173°
2026-04-30 22:47 48.35406 11.77772 1485 ft 10 kts 173°
2026-04-30 22:47 48.35217 11.77804 1482 ft 21 kts 173°
2026-04-30 22:48 48.34910 11.77856 1485 ft 15 kts 175°
2026-04-30 22:49 48.34755 11.77886 1475 ft 0 kts 175°
2026-04-30 22:50 48.34547 11.77795 1479 ft 12 kts 261°
2026-04-30 22:51 48.34531 11.77553 1485 ft 0 kts 265°
2026-04-30 22:51 48.34516 11.77373 1485 ft 24 kts 263°
2026-04-30 22:52 48.34497 11.77117 1485 ft 25 kts 263°
2026-04-30 22:52 48.34463 11.76686 1480 ft 16 kts 263°
2026-04-30 22:53 48.34437 11.76368 1479 ft 14 kts 265°
2026-04-30 22:53 48.34413 11.76013 1485 ft 19 kts 263°
2026-04-30 22:53 48.34338 11.75953 1477 ft 19 kts 135°
2026-04-30 22:54 48.34201 11.76408 1471 ft 25 kts 113°
2026-04-30 22:55 48.34357 11.78856 1486 ft 154 kts 83°
2026-04-30 22:55 48.34627 11.82241 2675 ft 161 kts 84°
2026-04-30 22:56 48.35251 11.85274 4088 ft 154 kts 48°
2026-04-30 22:56 48.38764 11.86160 5466 ft 191 kts
2026-04-30 22:57 48.41191 11.84838 6832 ft 186 kts 321°
2026-04-30 22:57 48.43107 11.81704 7268 ft 225 kts 313°
2026-04-30 22:58 48.45411 11.77800 7731 ft 274 kts 315°
2026-04-30 22:59 48.49460 11.71130 9879 ft 295 kts 315°
2026-04-30 22:59 48.53794 11.63912 11553 ft 329 kts 315°